Back to catalog

STARLINK-32710

AliveCommunicationsVLEO
NORAD 62604·PAYLOAD·🇺🇸 United States

Launched Jan 13, 2025 from Cape Canaveral Space Force Station

Loading…

Next Passes (next 24 hours)

TLE

FreshSource: CelesTrak SupGP

Epoch: Sep 14, 2026, 15:15 UTC

1 62604C 25008T   26257.63590278  .00033253  00000+0  12044-2 0  2570
2 62604  43.0023 290.5211 0001786 278.3525 134.5627 15.27562683    10

Track STARLINK-32710 in real time with AllMySat

Download on the App Store